600  
ASPQ40 PGUM 020110  
RWRPQ  
WEATHER ROUNDUP FOR THE MARIANAS AND MICRONESIA  
NATIONAL WEATHER SERVICE TIYAN GU  
1100 AM CHST MON AUG 02 2021  
 
GUZ001>004-020200-  
MARIANA ISLANDS-  
 
CITY SKY/WX TMP DP RH WIND PRES REMARKS
 
GUAM AIRPORT LGT RAIN 82 79 89 SW6 29.81F HX 93  
ANDERSEN AFB LGT RAIN 77 75 94 W8 29.81F  
ROTA AIRPORT CLOUDY 77 73 88 S12 29.77F  
TINIAN AP PTSUNNY 81 77 89 SW13 29.77F  
SAIPAN AP LGT RAIN 81 77 89 S14 29.78F  
 

 
 
PMZ161-020200-  
REPUBLIC OF PALAU-  
 
CITY SKY/WX TMP DP RH WIND PRES REMARKS
 
KOROR AP LGT RAIN 81 77 89 SW7 29.81F  
KOROR WSO NOT AVBL  
 

 
 
PMZ171>174-020200-  
FEDERATED STATES OF MICRONESIA-  
 
CITY SKY/WX TMP DP RH WIND PRES REMARKS
 
YAP AIRPORT CLOUDY 84 79 84 VRB6 29.80S HX 96  
CHUUK AP CLOUDY 88 79 74 VRB5 29.84F HX 102  
POHNPEI AP CLOUDY 88 79 74 E3 29.86S HX 102  
POHNPEI WSO CLOUDY 88 77 70 E3 29.90F HX 100  
KOSRAE AP PTSUNNY 86 77 74 NE10 29.83F HX 97  
 

 
 
PMZ181-020200-  
REPUBLIC OF THE MARSHALL ISLANDS-  
 
CITY SKY/WX TMP DP RH WIND PRES REMARKS
 
KWAJALEIN AP HVY RAIN 84 77 79 SE12 29.87F HX 94  
MAJURO AP NOT AVBL  
MAJURO WSO MOSUNNY 90 79 70 E6 29.84F HX 105  
 

 
 
 
 
CLICK HERE TO GO TO PREVIOUS BULLETINS.

The Nexlab GU Page Main Text Page